GW4545 Weather Reports


Display with metric or nautical units.
time (UTC)temp
F
wind
direction
speed
MPH
gust
MPH
rain 1hr
in
rain 24hr
in
rain mn
in
humidity
%
barometer
mb
20260505153050 53 117 0.0 2.0 0.00 0.00 0.00 88 1017.1
20260505151545 53 0 0.0 1.0 0.00 0.00 0.00 88 1017.1
20260505124548 51 0 0.0 2.0 0.00 0.00 0.00 92 1016.0
20260505123101 50 105 1.0 2.0 0.00 0.00 0.00 92 1016.0
20260505121548 50 0 0.0 2.0 0.00 0.00 0.00 93 1015.9
20260505120053 50 91 1.0 3.0 0.00 0.00 0.00 94 1015.9
20260505114547 50 0 0.0 0.0 0.00 0.00 0.00 94 1016.0
20260505113049 50 0 0.0 2.0 0.00 0.00 0.00 93 1015.8
20260505111545 50 0 0.0 1.0 0.00 0.00 0.00 94 1015.8
20260505101545 48 0 0.0 0.0 0.00 0.00 0.00 94 1015.3
20260505100043 48 218 0.0 1.0 0.00 0.00 0.00 95 1015.4
20260505094545 47 0 0.0 0.0 0.00 0.00 0.00 94 1015.4
20260505093054 47 0 0.0 2.0 0.00 0.00 0.00 93 1015.2
20260505091544 47 218 0.0 2.0 0.00 0.00 0.00 93 1015.0
20260505090042 47 0 0.0 2.0 0.00 0.00 0.00 93 1014.9
20260505084543 47 0 1.0 2.0 0.00 0.00 0.00 93 1014.8
20260505083057 48 209 1.0 3.0 0.00 0.00 0.00 92 1014.8
20260505081548 48 184 2.0 3.0 0.00 0.00 0.00 93 1014.7
20260505080046 48 286 0.0 2.0 0.00 0.00 0.00 91 1014.7
20260505074543 49 286 1.0 3.0 0.00 0.00 0.00 91 1014.7
20260505073043 49 0 0.0 2.0 0.00 0.00 0.00 90 1014.5
20260505071548 50 250 1.0 2.0 0.00 0.00 0.00 90 1014.3
20260505070100 51 0 0.0 2.0 0.00 0.00 0.00 87 1014.0
20260505064550 52 0 0.0 6.0 0.00 0.00 0.00 86 1014.0
20260505063047 53 0 0.0 1.0 0.00 0.00 0.00 86 1013.7
20260505061610 53 0 0.0 2.0 0.00 0.00 0.00 86 1013.4
20260505060058 54 300 1.0 2.0 0.00 0.00 0.00 85 1013.3
20260505054547 54 300 1.0 3.0 0.00 0.00 0.00 84 1013.4
20260505053044 55 268 0.0 3.0 0.00 0.00 0.00 82 1013.5
20260505051542 55 0 0.0 2.0 0.00 0.00 0.00 82 1013.5
20260505041552 58 315 1.0 9.0 0.00 0.00 0.00 77 1012.9
20260505040058 59 268 3.0 6.0 0.00 0.00 0.00 77 1012.7
20260505034544 60 313 2.0 4.0 0.00 0.00 0.00 75 1012.5
20260505033041 61 0 0.0 5.0 0.00 0.00 0.00 74 1012.4
20260505031552 63 286 3.0 6.0 0.00 0.00 0.00 71 1012.2
20260505030049 64 321 0.0 2.0 0.00 0.00 0.00 69 1011.9
20260505024544 65 295 2.0 9.0 0.00 0.00 0.00 68 1012.0
20260505023044 67 252 6.0 12.0 0.00 0.00 0.00 64 1011.6
20260505021545 68 261 9.0 14.0 0.00 0.00 0.00 63 1011.7
20260505020050 70 281 7.0 11.0 0.00 0.00 0.00 63 1011.6
20260505014548 72 235 7.0 11.0 0.00 0.00 0.00 59 1011.5
20260505013047 73 254 8.0 14.0 0.00 0.00 0.00 58 1011.5
20260505011545 75 264 7.0 10.0 0.00 0.00 0.00 58 1011.6
20260505004554 77 146 3.0 7.0 0.00 0.00 0.00 56 1011.8
20260505003047 77 167 1.0 8.0 0.00 0.00 0.00 56 1011.7
20260505001552 77 111 2.0 7.0 0.00 0.00 0.00 60 1011.7
20260505000056 77 163 4.0 9.0 0.00 0.00 0.00 57 1011.9
20260504234545 77 194 3.0 6.0 0.00 0.00 0.00 58 1011.8
20260504233043 76 140 1.0 6.0 0.00 0.00 0.00 60 1011.9
20260504231541 77 9 1.0 5.0 0.00 0.00 0.00 57 1012.0
20260504230042 76 0 2.0 7.0 0.00 0.00 0.00 59 1012.2
20260504224550 75 133 1.0 5.0 0.00 0.00 0.00 60 1012.4
20260504223050 74 67 3.0 7.0 0.00 0.00 0.00 60 1012.6
20260504221546 74 198 1.0 6.0 0.00 0.00 0.00 62 1012.8
20260504214547 72 0 1.0 7.0 0.00 0.00 0.00 64 1013.1
20260504213108 72 32 3.0 8.0 0.00 0.00 0.00 67 1013.2
20260504211545 71 96 2.0 9.0 0.00 0.00 0.00 67 1013.5
20260504210048 70 68 3.0 8.0 0.00 0.00 0.00 69 1013.6
20260504204555 69 46 2.0 7.0 0.00 0.00 0.00 69 1013.7
20260504203043 69 117 3.0 10.0 0.00 0.00 0.00 67 1013.9
20260504201551 68 98 3.0 7.0 0.00 0.00 0.00 71 1014.1
20260504200045 66 37 3.0 9.0 0.00 0.00 0.00 70 1014.3
20260504194549 67 128 3.0 8.0 0.00 0.00 0.00 70 1014.4
20260504193059 66 0 1.0 8.0 0.00 0.00 0.00 73 1014.4
20260504191544 65 94 2.0 9.0 0.00 0.00 0.00 73 1014.5
20260504190051 65 28 1.0 8.0 0.00 0.00 0.00 78 1014.6
20260504184544 63 43 3.0 8.0 0.00 0.00 0.00 76 1014.5
20260504183057 63 5 2.0 7.0 0.00 0.00 0.00 75 1014.7
20260504181546 64 131 3.0 9.0 0.00 0.00 0.00 75 1014.7
20260504180122 63 62 2.0 6.0 0.00 0.00 0.00 74 1014.7
20260504174551 63 107 1.0 7.0 0.00 0.00 0.00 75 1014.7
20260504173043 62 46 1.0 7.0 0.00 0.00 0.00 78 1014.4
20260504171545 62 96 2.0 8.0 0.00 0.00 0.00 75 1014.3